Location: Arrodets-la-Barthe
(43.0306°N, 0.2829°E)
Time: 00:47:42
(UTC+00:00)

NOAA 19 - Pass Details

Date: 09 April 2023
Orbit: 840 x 859 km, 99.1° (Epoch: 29 May)

Event Time Altitude Azimuth Distance (km) Brightness Sun altitude
Exits shadow 20:11:21 - 179° (S) 2,908 7.7 -17.5°
Reaches altitude 10° 20:12:31 10° 181° (S) 2,457 7.3 -17.6°
Maximum altitude 20:17:51 55° 259° (W) 1,010 5.8 -18.5°
Drops below altitude 10° 20:23:12 10° 337° (NNW) 2,467 8.4 -19.3°
Sets 20:25:38 0° 342° (NNW) 3,406 9.1 -19.7°
